FW4708 Weather Reports


time (UTC)temp
C
wind
direction
speed
KPH
gust
KPH
rain 1hr
cm
rain 24hr
cm
rain mn
cm
humidity
%
barometer
mb
20260502193759 34 246 9.7 29.0 0.00 0.00 0.00 32 1010.9
20260502193311 35 195 8.0 24.1 0.00 0.00 0.00 31 1011.0
20260502193116 34 155 4.8 24.1 0.00 0.00 0.00 35 1011.0
20260502192757 34 217 12.9 24.1 0.00 0.00 0.00 34 1011.1
20260502192300 34 272 11.3 30.6 0.00 0.00 0.00 32 1011.2
20260502191805 35 234 9.7 24.1 0.00 0.00 0.00 32 1011.3
20260502191617 35 241 8.0 22.5 0.00 0.00 0.00 34 1011.3
20260502191312 35 259 6.4 22.5 0.00 0.00 0.00 36 1011.2
20260502190759 34 248 4.8 22.5 0.00 0.00 0.00 36 1011.2
20260502190301 34 238 8.0 24.1 0.00 0.00 0.00 37 1011.4
20260502190002 34 219 9.7 24.1 0.00 0.00 0.00 36 1011.5
20260502185806 35 238 8.0 22.5 0.00 0.00 0.00 36 1011.4
20260502185324 34 240 9.7 30.6 0.00 0.00 0.00 37 1011.3
20260502184812 35 226 11.3 30.6 0.00 0.00 0.00 37 1011.3
20260502184514 34 232 8.0 27.4 0.00 0.00 0.00 36 1011.2
20260502184316 35 220 8.0 27.4 0.00 0.00 0.00 36 1011.2
20260502183821 35 211 4.8 22.5 0.00 0.00 0.00 36 1011.4
20260502183305 34 246 12.9 22.5 0.00 0.00 0.00 36 1011.4
20260502183101 34 229 8.0 19.3 0.00 0.00 0.00 36 1011.5
20260502182810 35 226 8.0 29.0 0.00 0.00 0.00 36 1011.5
20260502182308 34 248 9.7 29.0 0.00 0.00 0.00 36 1011.6
20260502181837 34 211 9.7 22.5 0.00 0.00 0.00 36 1011.6
20260502181512 33 255 8.0 22.5 0.00 0.00 0.00 36 1011.7
20260502181407 34 228 12.9 22.5 0.00 0.00 0.00 34 1011.7
20260502180827 35 238 11.3 20.9 0.00 0.00 0.00 35 1011.7
20260502180314 34 203 6.4 25.7 0.00 0.00 0.00 36 1011.6
20260502170301 33 249 4.8 22.5 0.00 0.00 0.00 48 1011.9
20260502164306 33 236 6.4 20.9 0.00 0.00 0.00 45 1012.1
20260502163821 33 243 8.0 16.1 0.00 0.00 0.00 45 1012.1
20260502163325 33 175 4.8 22.5 0.00 0.00 0.00 46 1012.1
20260502163009 32 95 6.4 22.5 0.00 0.00 0.00 49 1012.1
20260502162810 33 260 6.4 22.5 0.00 0.00 0.00 46 1012.2
20260502162316 33 234 3.2 19.3 0.00 0.00 0.00 51 1012.2
20260502161821 32 150 4.8 25.7 0.00 0.00 0.00 51 1012.3
20260502161556 32 221 1.6 25.7 0.00 0.00 0.00 53 1012.3
20260502161304 32 239 8.0 25.7 0.00 0.00 0.00 51 1012.3
20260502160808 32 71 1.6 12.9 0.00 0.00 0.00 55 1012.3
20260502160318 32 224 4.8 12.9 0.00 0.00 0.00 52 1012.3
20260502152315 32 39 3.2 14.5 0.00 0.00 0.00 55 1012.7
20260502151820 31 223 6.4 14.5 0.00 0.00 0.00 55 1012.8
20260502151612 31 221 3.2 16.1 0.00 0.00 0.00 56 1012.8
20260502151305 31 303 4.8 16.1 0.00 0.00 0.00 56 1012.7
20260502150805 31 233 3.2 16.1 0.00 0.00 0.00 56 1012.7
20260502150259 31 221 3.2 12.9 0.00 0.00 0.00 58 1012.7
20260502130311 29 211 1.6 8.0 0.00 0.00 0.00 63 1012.1
20260502123807 28 70 4.8 14.5 0.00 0.00 0.00 69 1012.4
20260502123337 28 96 3.2 9.7 0.00 0.00 0.00 71 1012.4
20260502123013 28 245 3.2 9.7 0.00 0.00 0.00 71 1012.3
20260502122822 28 126 0.0 9.7 0.00 0.00 0.00 72 1012.3
20260502122308 28 78 1.6 4.8 0.00 0.00 0.00 73 1012.2
20260502121814 27 110 0.0 6.4 0.00 0.00 0.00 73 1012.3
20260502121603 27 232 0.0 6.4 0.00 0.00 0.00 73 1012.3
20260502121300 27 63 1.6 6.4 0.00 0.00 0.00 74 1012.3
20260502120805 27 108 0.0 3.2 0.00 0.00 0.00 75 1012.3
20260502120311 26 356 0.0 3.2 0.00 0.00 0.00 76 1012.3
20260502115756 26 18 0.0 3.2 0.00 0.00 0.00 78 1012.3
20260502115305 26 47 0.0 1.6 0.00 0.00 0.00 79 1012.3
20260502114807 25 77 0.0 1.6 0.00 0.00 0.00 79 1012.3
20260502114551 25 68 0.0 1.6 0.00 0.00 0.00 80 1012.4
20260502114312 25 68 0.0 4.8 0.00 0.00 0.00 80 1012.3
20260502113759 25 117 1.6 4.8 0.00 0.00 0.00 80 1012.3
20260502113306 24 117 0.0 1.6 0.00 0.00 0.00 81 1012.2
20260502113043 23 116 0.0 1.6 0.00 0.00 0.00 82 1012.4
20260502112830 23 86 0.0 0.0 0.00 0.00 0.00 82 1012.4
20260502112335 23 85 0.0 0.0 0.00 0.00 0.00 81 1012.4
20260502111758 23 85 0.0 0.0 0.00 0.00 0.00 81 1012.3
20260502111604 23 85 0.0 0.0 0.00 0.00 0.00 81 1012.3
20260502111303 23 85 0.0 0.0 0.00 0.00 0.00 80 1012.3
20260502110804 23 85 0.0 0.0 0.00 0.00 0.00 80 1012.3
20260502110305 23 85 0.0 0.0 0.00 0.00 0.00 80 1012.4
20260502110025 23 85 0.0 0.0 0.00 0.00 0.00 80 1012.4
20260502105817 23 85 0.0 0.0 0.00 0.00 0.00 80 1012.4
20260502105322 23 85 0.0 0.0 0.00 0.00 0.00 79 1012.3
20260502104806 23 85 0.0 0.0 0.00 0.00 0.00 79 1012.3
20260502104511 23 85 0.0 0.0 0.00 0.00 0.00 79 1012.3
20260502104314 24 85 0.0 0.0 0.00 0.00 0.00 78 1012.2
20260502103819 24 86 0.0 0.0 0.00 0.00 0.00 78 1012.3
20260502103302 24 85 0.0 0.0 0.00 0.00 0.00 78 1012.2
20260502103056 24 85 0.0 0.0 0.00 0.00 0.00 78 1012.3
20260502102808 24 85 0.0 0.0 0.00 0.00 0.00 78 1012.2
20260502102310 24 79 0.0 0.0 0.00 0.00 0.00 78 1012.1
20260502101813 24 311 0.0 0.0 0.00 0.00 0.00 79 1012.2
20260502101610 23 311 0.0 0.0 0.00 0.00 0.00 79 1012.3
20260502101259 23 311 0.0 0.0 0.00 0.00 0.00 79 1012.3
20260502100806 23 311 0.0 0.0 0.00 0.00 0.00 79 1012.4
20260502100305 23 311 0.0 0.0 0.00 0.00 0.00 79 1012.4
20260502091504 23 311 0.0 0.0 0.00 0.00 0.00 79 1012.3
20260502091257 23 311 0.0 0.0 0.00 0.00 0.00 78 1012.2
20260502090803 23 311 0.0 0.0 0.00 0.00 0.00 79 1012.2
20260502090309 23 311 0.0 0.0 0.00 0.00 0.00 79 1012.2
20260502071506 23 115 0.0 0.0 0.00 0.00 0.00 83 1012.1
20260502071301 23 115 0.0 0.0 0.00 0.00 0.00 83 1012.0
20260502070806 23 115 0.0 0.0 0.00 0.00 0.00 83 1012.0
20260502070309 23 115 0.0 0.0 0.00 0.00 0.00 83 1012.1
20260502070009 23 115 0.0 0.0 0.00 0.00 0.00 83 1012.1
20260502065815 23 115 0.0 0.0 0.00 0.00 0.00 83 1012.0
20260502065320 23 115 0.0 0.0 0.00 0.00 0.00 84 1012.0
20260502064826 23 115 0.0 0.0 0.00 0.00 0.00 83 1012.1
20260502064556 23 115 0.0 0.0 0.00 0.00 0.00 83 1012.0
20260502064310 23 115 0.0 0.0 0.00 0.00 0.00 82 1012.1
20260502063810 23 115 0.0 0.0 0.00 0.00 0.00 83 1012.2
20260502063320 23 115 0.0 0.0 0.00 0.00 0.00 83 1012.2
20260502063017 23 115 0.0 0.0 0.00 0.00 0.00 83 1012.2
20260502062804 23 115 0.0 0.0 0.00 0.00 0.00 83 1012.3
20260502062329 23 115 0.0 0.0 0.00 0.00 0.00 82 1012.4
20260502061809 23 115 0.0 0.0 0.00 0.00 0.00 82 1012.4
20260502061527 23 115 0.0 0.0 0.00 0.00 0.00 82 1012.4
20260502061319 23 115 0.0 0.0 0.00 0.00 0.00 82 1012.4
20260502060823 23 115 0.0 0.0 0.00 0.00 0.00 81 1012.3
20260502060305 23 115 0.0 0.0 0.00 0.00 0.00 81 1012.3
20260502060023 23 115 0.0 0.0 0.00 0.00 0.00 81 1012.4
20260502055811 23 115 0.0 0.0 0.00 0.00 0.00 81 1012.4
20260502055316 24 115 0.0 0.0 0.00 0.00 0.00 81 1012.2
20260502054801 24 115 0.0 0.0 0.00 0.00 0.00 81 1012.3
20260502054612 23 115 0.0 0.0 0.00 0.00 0.00 81 1012.3
20260502054306 24 115 0.0 0.0 0.00 0.00 0.00 80 1012.3
20260502053815 24 115 0.0 0.0 0.00 0.00 0.00 80 1012.3